This is the latest recevied weather packets stored in our database for station/object M0XZS-2. If no packets are shown the sender has not sent any weather packets the latest 10 day(s).
| Time | Temp. | Humidity | Pressure | Rain* | Wind** | Luminosity | Snow |
|---|---|---|---|---|---|---|---|
| 1777621055 | 14.44° C | 45% | 1024 hPa | - | - | - | - |
| 1777620155 | 13.89° C | 45% | 1024 hPa | - | - | - | - |
| 1777619255 | 13.33° C | 45% | 1024 hPa | - | - | - | - |
| 1777618355 | 12.22° C | 45% | 1024.1 hPa | - | - | - | - |
| 1777617455 | 11.67° C | 46% | 1024.2 hPa | - | - | - | - |
| 1777616554 | 11.11° C | 46% | 1024.2 hPa | - | - | - | - |
| 1777615654 | 10.56° C | 47% | 1024.4 hPa | - | - | - | - |
| 1777614754 | 10.56° C | 47% | 1024.3 hPa | - | - | - | - |
| 1777613854 | 10° C | 46% | 1024.2 hPa | - | - | - | - |
| 1777612954 | 11.11° C | 43% | 1024.1 hPa | - | - | - | - |
| 1777612054 | 11.11° C | 42% | 1024.2 hPa | - | - | - | - |
| 1777611154 | 11.11° C | 42% | 1024.3 hPa | - | - | - | - |
| 1777610254 | 11.11° C | 41% | 1024.4 hPa | - | - | - | - |
| 1777609353 | 10.56° C | 43% | 1024.5 hPa | - | - | - | - |
| 1777608453 | 11.11° C | 43% | 1024.5 hPa | - | - | - | - |
| 1777607553 | 11.11° C | 43% | 1024.8 hPa | - | - | - | - |
| 1777606653 | 11.11° C | 42% | 1024.9 hPa | - | - | - | - |
| 1777605753 | 11.67° C | 43% | 1024.9 hPa | - | - | - | - |
| 1777604853 | 11.67° C | 43% | 1025 hPa | - | - | - | - |
| 1777603953 | 11.67° C | 43% | 1025.2 hPa | - | - | - | - |
| 1777603055 | 11.67° C | 43% | 1025.3 hPa | - | - | - | - |
| 1777602155 | 12.22° C | 42% | 1025.4 hPa | - | - | - | - |
| 1777601254 | 12.22° C | 42% | 1025.5 hPa | - | - | - | - |
| 1777600354 | 12.78° C | 42% | 1025.5 hPa | - | - | - | - |
| 1777598554 | 12.22° C | 43% | 1026 hPa | - | - | - | - |
* Rain since midnight (hover to see other rain measurements)
** Current wind speed in m/s (hover to see current wind gust speed)